Regional Weather Roundup
Issued by NWS Cleveland, OH

Home | Current Version | Previous Version | Graphics & Text | Print | Product List | Glossary On
Versions: 1 2 3 4 5 6 7 8 9 10 11 12 13 14 15 16 17 18 19 20 21 22 23 24 25 26 27 28 29 30 31 32 33 34 35 36 37 38 39 40 41 42 43 44 45 46 47 48 49 50
000
ASUS41 KCLE 160510
RWRCLE
OHIO REGIONAL WEATHER ROUNDUP
NATIONAL WEATHER SERVICE WILMINGTON, OH
100 AM EDT TUE SEP 16 2014

NOTE: "FAIR" INDICATES FEW OR NO CLOUDS BELOW 12,000 FEET WITH NO
SIGNIFICANT WEATHER AND/OR OBSTRUCTIONS TO VISIBILITY.

OHZ001>008-015>018-024>027-034-035-043-044-160600-
   NORTHWEST OHIO

CITY           SKY/WX    TMP DP  RH WIND       PRES   REMARKS
DEFIANCE       FOG       51  49  92 CALM      30.12S VSB 1/4
FINDLAY        LGT RAIN  55  53  93 W5        30.11S
TOLEDO EXPRESS MOCLDY    52  52 100 SW6       30.10S FOG
TOLEDO METCALF PTCLDY    52  50  93 SW5       30.11S
LIMA           CLOUDY    55  53  93 N3        30.12F
$$

OHZ009>014-019>023-028>033-038-089-160600-
   NORTHEAST OHIO

CITY           SKY/WX    TMP DP  RH WIND       PRES   REMARKS
CLE-HOPKINS    CLOUDY    55  51  86 N6        30.10S
CLE-LAKEFRONT  LGT RAIN  57  51  80 N6        30.07S
CUY CO. ARPT   NOT AVBL
LORAIN-ELYRIA  CLOUDY    59  55  87 N3        30.09S
ASHTABULA      LGT RAIN  54  52  93 W5        30.08S
AKRON-CANTON   LGT RAIN  57  54  89 N3        30.07F FOG
WOOSTER        LGT RAIN  56  54  93 NW5       30.09R FOG
MANSFIELD      CLOUDY    54  54 100 NW3       30.09S
YOUNGSTOWN     LGT RAIN  54  52  94 N9        30.07R
$$

OHZ042-051>053-060>062-070>072-077>081-160600-
  SOUTHWEST OHIO

CITY           SKY/WX    TMP DP  RH WIND       PRES   REMARKS
CINC-COVINGTON CLOUDY    59  56  89 N6        30.11R FOG
CINC-LUNKEN    CLOUDY    59  57  93 NW6       30.12S
HAMILTON       CLOUDY    58  57  97 CALM      30.12S
DAYTON         LGT RAIN  57  56  96 N7        30.13S FOG
WRIGHT-PAT AFB LGT RAIN  58  57  96 N7        30.12R FOG
DAYTON GENERAL LGT RAIN  58  56  93 N5        30.11S FOG
WILMINGTON     LGT RAIN  57  55  93 NW7       30.12R FOG
$$

OHZ036-037-039>041-045>050-054>059-063>069-073>076-082>088-160600-
  CENTRAL AND SOUTHEAST OHIO

CITY           SKY/WX    TMP DP  RH WIND       PRES   REMARKS
COLUMBUS       CLOUDY    60  55  83 N8        30.09R
OSU AIRPORT    CLOUDY    57  55  93 N12       30.11R
BOLTON FIELD   DRIZZLE   57  56  97 NW8       30.10S
RICKENBACK AFB LGT RAIN  58  56  92 W6        30.09S
NEWARK         LGT RAIN  59  53  80 NW6       30.09R
MARION         LGT RAIN  55  53  93 W5        30.11S FOG
LANCASTER      CLOUDY    59  55  87 W6        30.10R
ZANESVILLE     CLOUDY    60  52  74 NW7       30.08R
NEW PHILLY     LGT RAIN  57  55  93 CALM      30.08S
$$


USA.gov is the U.S. government's official web portal to all federal, state and local government web resources and services.